Temp
-10 -9 -9 -9 -9 -9 -8 -10 -9 -9 -8 -7 -8 -8 -8 -9 -8 -9 -8 -8 -8 -8 -8 -8 -8 -7 -7 -7 -7 -7 -7 -7 -7 -7 -8 -8 -8 -8 -8 -8 -8 -8 -8 -9 -9 -9 -9 -9 -9
-10 -10 -9 -9 -9 -9 -9 -9 -10 -8 -7 -7 -7 -8 -9 -9 -9 -9 -9 -9 -8 -8 -8 -8 -8 -8 -8 -7 -7 -7 -7 -7 -7 -7 -7 -8 -8 -8 -8 -8 -8 -8 -8 -9 -9 -9 -9 -9 -9
-10 -10 -10 -10 -9 -9 -10 -9 -9 -9 -8 -8 -8 -8 -9 -9 -9 -9 -9 -9 -9 -9 -9 -9 -9 -8 -8 -8 -8 -8 -7 -7 -7 -7 -7 -7 -7 -8 -8 -8 -8 -8 -8 -8 -9 -9 -9 -9 -9
-11 -11 -10 -10 -10 -11 -10 -10 -10 -10 -10 -8 -8 -8 -9 -9 -9 -9 -9 -9 -9 -9 -9 -9 -9 -9 -9 -9 -9 -8 -8 -8 -7 -7 -7 -7 -7 -7 -7 -8 -8 -8 -8 -9 -9 -9 -9 -9 -9
-12 -11 -11 -10 -11 -11 -10 -11 -11 -10 -7 -8 -9 -9 -9 -9 -9 -9 -9 -9 -9 -9 -10 -10 -10 -10 -9 -9 -9 -9 -9 -8 -8 -8 -7 -7 -7 -7 -7 -7 -8 -8 -8 -8 -9 -9 -9 -9 -9
-13 -12 -12 -12 -12 -11 -11 -11 -11 -10 -10 -9 -9 -9 -9 -9 -9 -9 -9 -9 -9 -9 -9 -10 -9 -9 -10 -10 -9 -9 -9 -9 -9 -9 -8 -8 -7 -7 -7 -7 -7 -8 -8 -8 -8 -9 -9 -9 -9
-12 -13 -13 -14 -13 -13 -12 -11 -10 -10 -10 -10 -10 -9 -9 -9 -10 -10 -10 -9 -10 -9 -9 -9 -9 -9 -9 -10 -10 -10 -9 -9 -9 -9 -9 -9 -8 -8 -8 -8 -7 -7 -7 -8 -8 -8 -8 -9 -9
-13 -12 -13 -14 -13 -13 -11 -12 -11 -10 -9 -10 -10 -10 -10 -10 -10 -10 -10 -10 -10 -9 -9 -10 -10 -9 -9 -9 -10 -10 -10 -10 -10 -9 -10 -9 -9 -9 -9 -8 -8 -8 -8 -8 -8 -8 -8 -8 -8
-13 -13 -13 -14 -13 -12 -12 -12 -11 -10 -11 -10 -10 -11 -10 -10 -10 -10 -10 -10 -10 -10 -10 -10 -10 -10 -10 -10 -10 -10 -10 -10 -10 -10 -10 -10 -10 -10 -10 -9 -9 -9 -8 -8 -8 -8 -8 -8 -8
-14 -13 -13 -14 -13 -13 -12 -12 -11 -12 -11 -11 -11 -11 -11 -11 -11 -10 -10 -10 -10 -10 -10 -10 -10 -10 -10 -10 -10 -10 -10 -10 -10 -10 -10 -10 -10 -10 -10 -10 -10 -9 -9 -9 -9 -8 -8 -8 -8
-14 -14 -14 -13 -13 -13 -12 -12 -11 -12 -12 -11 -11 -11 -11 -11 -12 -11 -11 -10 -11 -11 -10 -10 -11 -10 -10 -10 -10 -10 -10 -10 -10 -10 -10 -10 -10 -10 -10 -10 -10 -10 -10 -10 -10 -9 -9 -9 -8
-14 -15 -13 -14 -13 -13 -11 -12 -12 -13 -13 -12 -12 -12 -12 -12 -13 -12 -11 -11 -11 -11 -11 -11 -11 -11 -11 -10 -10 -11 -11 -11 -11 -11 -11 -10 -11 -11 -11 -10 -10 -10 -10 -10 -10 -10 -10 -10 -9
-15 -15 -14 -13 -14 -13 -13 -13 -13 -14 -13 -13 -13 -12 -12 -12 -12 -12 -12 -11 -11 -11 -11 -11 -11 -11 -11 -11 -11 -11 -11 -11 -11 -11 -11 -11 -11 -11 -11 -11 -11 -11 -10 -10 -10 -10 -10 -10 -10
-15 -14 -14 -13 -13 -14 -14 -13 -14 -14 -14 -14 -13 -13 -12 -12 -12 -12 -12 -12 -12 -12 -11 -11 -11 -11 -11 -11 -11 -11 -11 -11 -11 -11 -11 -11 -11 -11 -11 -11 -11 -10 -11 -11 -10 -10 -10 -10 -10
-15 -14 -13 -14 -14 -14 -14 -14 -14 -14 -14 -14 -14 -14 -13 -13 -13 -12 -12 -12 -12 -12 -12 -11 -12 -12 -12 -11 -11 -11 -11 -11 -11 -11 -11 -11 -11 -11 -11 -11 -11 -11 -11 -11 -11 -10 -10 -10 -10
-14 -13 -13 -14 -14 -15 -14 -13 -13 -14 -14 -14 -14 -14 -14 -14 -13 -13 -13 -13 -13 -12 -12 -12 -12 -12 -12 -12 -12 -11 -11 -11 -11 -11 -11 -11 -11 -11 -11 -11 -11 -11 -11 -11 -11 -11 -10 -10 -10
-15 -14 -14 -14 -14 -15 -15 -14 -14 -14 -15 -14 -14 -14 -14 -14 -14 -14 -13 -13 -13 -13 -13 -13 -12 -12 -12 -12 -12 -12 -12 -11 -11 -11 -11 -11 -11 -11 -11 -11 -10 -11 -11 -11 -11 -10 -10 -11 -11
-15 -15 -15 -15 -14 -15 -15 -15 -14 -15 -14 -13 -14 -14 -14 -14 -13 -14 -14 -13 -13 -13 -13 -13 -13 -13 -13 -13 -12 -12 -12 -11 -11 -11 -11 -11 -11 -11 -11 -11 -10 -10 -10 -10 -10 -10 -10 -10 -10
-16 -17 -17 -16 -15 -15 -15 -15 -15 -16 -15 -16 -17 -15 -14 -15 -15 -14 -14 -14 -14 -14 -14 -13 -13 -13 -12 -12 -12 -12 -12 -11 -11 -11 -11 -11 -11 -11 -11 -11 -11 -11 -11 -11 -10 -10 -10 -11 -10
-17 -17 -17 -16 -15 -16 -15 -15 -16 -16 -16 -16 -16 -16 -16 -15 -15 -15 -14 -14 -14 -13 -13 -13 -13 -13 -13 -12 -12 -12 -12 -12 -11 -11 -11 -10 -10 -10 -10 -11 -11 -11 -11 -11 -11 -11 -11 -11 -11
-17 -17 -16 -16 -17 -16 -16 -16 -16 -16 -16 -16 -16 -16 -15 -15 -15 -15 -14 -14 -14 -14 -13 -13 -13 -13 -13 -13 -12 -12 -12 -11 -11 -12 -12 -12 -11 -11 -11 -11 -11 -11 -11 -11 -11 -11 -11 -11 -12
-17 -17 -16 -16 -17 -17 -17 -17 -17 -16 -16 -16 -16 -16 -15 -15 -15 -15 -15 -15 -14 -14 -14 -13 -13 -13 -13 -13 -13 -13 -13 -12 -12 -11 -11 -11 -11 -11 -11 -11 -11 -11 -11 -11 -11 -11 -11 -11 -11
-17 -16 -17 -17 -17 -17 -17 -17 -17 -16 -16 -16 -16 -16 -15 -15 -15 -15 -15 -15 -14 -14 -14 -14 -14 -14 -14 -13 -13 -13 -13 -12 -12 -12 -12 -12 -12 -12 -12 -12 -12 -12 -12 -13 -13 -12 -12 -12 -12
-18 -18 -17 -17 -17 -17 -17 -17 -17 -16 -16 -16 -16 -16 -16 -16 -16 -15 -15 -15 -15 -15 -15 -14 -14 -14 -14 -14 -14 -13 -13 -13 -13 -13 -13 -13 -13 -13 -14 -15 -15 -15 -15 -15 -15 -15 -14 -14 -13
-16 -17 -18 -18 -18 -17 -17 -18 -17 -17 -16 -16 -16 -16 -16 -15 -15 -15 -15 -15 -15 -15 -14 -14 -14 -14 -14 -14 -14 -14 -14 -14 -14 -14 -14 -14 -14 -14 -15 -15 -15 -15 -15 -15 -15 -15 -16 -16 -16
-16 -17 -17 -17 -17 -17 -17 -17 -18 -16 -16 -16 -15 -16 -15 -15 -15 -15 -15 -15 -15 -15 -15 -15 -15 -15 -15 -15 -15 -15 -15 -14 -14 -15 -15 -15 -15 -15 -16 -16 -16 -16 -16 -16 -16 -16 -16 -16 -16
-16 -16 -17 -18 -18 -17 -18 -16 -17 -16 -16 -16 -15 -15 -15 -15 -15 -15 -15 -15 -15 -15 -15 -15 -15 -15 -15 -15 -15 -15 -15 -15 -15 -16 -16 -16 -16 -16 -16 -16 -16 -16 -16 -16 -16 -16 -16 -17 -17
-16 -17 -17 -16 -16 -17 -17 -17 -16 -16 -16 -16 -16 -16 -16 -15 -15 -15 -15 -16 -16 -16 -16 -16 -16 -16 -16 -16 -16 -16 -16 -16 -16 -16 -16 -16 -16 -16 -16 -16 -16 -16 -16 -16 -16 -17 -17 -17 -17
-16 -16 -16 -16 -16 -17 -17 -17 -17 -16 -16 -16 -16 -16 -16 -16 -16 -16 -16 -16 -16 -16 -16 -16 -16 -16 -16 -16 -16 -16 -16 -16 -16 -16 -16 -16 -16 -16 -16 -16 -16 -16 -16 -16 -17 -17 -17 -17 -17
-17 -17 -17 -17 -16 -16 -16 -17 -16 -17 -16 -16 -16 -16 -16 -16 -16 -16 -16 -16 -16 -16 -16 -16 -16 -17 -17 -17 -17 -17 -17 -17 -16 -16 -16 -16 -16 -16 -16 -16 -16 -16 -16 -17 -17 -17 -17 -17 -17
Height
5843 5845 5848 5851 5856 5857 5862 5863 5867 5862 5860 5853 5855 5858 5859 5863 5866 5869 5865 5866 5867 5867 5867 5867 5868 5867 5867 5867 5867 5868 5868 5866 5865 5864 5864 5864 5863 5863 5863 5865 5866 5867 5867 5868 5869 5870 5870 5870 5871
5840 5842 5844 5847 5852 5855 5863 5866 5857 5852 5854 5854 5854 5860 5863 5865 5867 5865 5865 5867 5868 5868 5868 5868 5868 5868 5868 5868 5868 5868 5869 5868 5867 5865 5865 5865 5865 5864 5864 5865 5867 5868 5870 5870 5871 5871 5872 5873 5874
5835 5838 5841 5844 5849 5854 5862 5867 5855 5852 5834 5851 5859 5857 5862 5864 5865 5865 5866 5867 5869 5869 5869 5868 5869 5869 5869 5870 5870 5870 5869 5869 5868 5868 5867 5867 5867 5866 5866 5867 5868 5869 5870 5872 5873 5873 5874 5874 5875
5830 5834 5838 5841 5846 5850 5853 5850 5844 5849 5842 5851 5856 5853 5860 5863 5864 5866 5867 5867 5869 5870 5869 5869 5869 5869 5869 5870 5871 5871 5870 5870 5869 5868 5868 5868 5867 5868 5868 5868 5869 5870 5870 5872 5873 5874 5875 5875 5875
5825 5829 5832 5835 5843 5842 5843 5845 5848 5846 5841 5833 5843 5852 5858 5862 5864 5866 5866 5867 5869 5869 5869 5869 5870 5870 5870 5870 5871 5871 5871 5871 5871 5871 5869 5868 5867 5867 5868 5869 5870 5871 5872 5872 5873 5874 5875 5876 5876
5821 5824 5828 5833 5841 5836 5837 5840 5843 5839 5832 5832 5851 5848 5856 5860 5863 5865 5866 5867 5868 5867 5868 5869 5870 5870 5870 5871 5871 5871 5871 5871 5871 5871 5871 5871 5869 5868 5868 5869 5869 5870 5872 5873 5873 5874 5874 5875 5875
5817 5816 5824 5826 5828 5831 5833 5834 5834 5833 5828 5838 5849 5848 5855 5858 5862 5864 5865 5866 5867 5867 5867 5868 5869 5870 5870 5870 5871 5871 5871 5870 5871 5871 5871 5870 5871 5870 5869 5869 5869 5869 5870 5871 5872 5873 5874 5874 5875
5811 5810 5813 5820 5815 5820 5826 5829 5827 5826 5833 5838 5843 5844 5852 5856 5859 5861 5863 5864 5865 5866 5867 5867 5868 5869 5870 5870 5871 5871 5871 5870 5869 5869 5869 5869 5869 5870 5870 5870 5870 5869 5869 5870 5870 5871 5871 5872 5873
5805 5808 5814 5812 5813 5806 5818 5821 5824 5830 5832 5833 5838 5843 5848 5851 5854 5857 5859 5861 5863 5865 5866 5867 5867 5867 5868 5869 5869 5870 5870 5869 5869 5868 5868 5867 5867 5868 5869 5869 5870 5870 5870 5870 5870 5870 5870 5870 5870
5799 5802 5808 5806 5803 5802 5806 5816 5819 5823 5827 5829 5835 5838 5841 5845 5849 5852 5855 5857 5860 5862 5864 5864 5865 5866 5866 5866 5867 5867 5867 5868 5868 5868 5867 5866 5865 5865 5866 5866 5866 5867 5868 5869 5869 5869 5869 5870 5869
5795 5799 5796 5800 5799 5805 5805 5805 5812 5818 5823 5828 5831 5834 5838 5841 5843 5847 5850 5854 5856 5858 5861 5862 5862 5864 5864 5864 5864 5864 5864 5865 5865 5865 5865 5865 5864 5863 5863 5863 5863 5864 5864 5864 5865 5866 5867 5867 5867
5790 5791 5788 5795 5800 5798 5798 5808 5811 5817 5820 5824 5827 5830 5833 5835 5839 5843 5846 5850 5853 5854 5856 5858 5859 5860 5860 5861 5861 5861 5861 5861 5861 5862 5861 5861 5862 5862 5863 5862 5861 5861 5860 5859 5860 5860 5861 5862 5862
5782 5777 5782 5792 5791 5796 5799 5804 5807 5809 5814 5819 5821 5826 5829 5833 5836 5839 5843 5846 5849 5851 5852 5854 5855 5856 5857 5857 5857 5858 5858 5858 5857 5857 5858 5858 5858 5859 5859 5859 5858 5857 5856 5856 5855 5855 5854 5855 5855
5774 5770 5778 5786 5790 5793 5795 5796 5801 5804 5807 5814 5819 5822 5826 5830 5833 5837 5840 5843 5845 5846 5848 5850 5851 5852 5852 5852 5854 5853 5854 5853 5852 5852 5852 5853 5852 5854 5854 5854 5853 5853 5851 5851 5851 5851 5851 5850 5849
5763 5769 5774 5780 5785 5786 5788 5790 5794 5800 5800 5805 5811 5815 5821 5825 5828 5831 5834 5837 5839 5842 5844 5845 5846 5846 5846 5846 5849 5848 5848 5848 5847 5846 5846 5847 5846 5845 5846 5846 5847 5848 5846 5845 5845 5846 5845 5845 5845
5759 5763 5767 5773 5778 5783 5784 5783 5788 5794 5797 5801 5805 5810 5814 5819 5822 5824 5827 5830 5832 5835 5837 5838 5839 5840 5840 5840 5843 5842 5841 5841 5840 5840 5839 5839 5839 5839 5838 5839 5838 5838 5838 5838 5839 5838 5837 5837 5837
5755 5758 5763 5765 5773 5777 5779 5780 5782 5784 5787 5793 5797 5801 5804 5810 5814 5817 5821 5823 5826 5828 5830 5831 5832 5833 5834 5834 5834 5835 5834 5833 5833 5833 5832 5831 5831 5830 5830 5830 5830 5829 5828 5828 5829 5829 5828 5828 5827
5751 5753 5755 5755 5766 5768 5770 5772 5777 5780 5782 5785 5790 5796 5799 5802 5807 5811 5814 5816 5819 5821 5821 5824 5825 5826 5827 5827 5827 5826 5828 5826 5825 5825 5824 5823 5821 5821 5820 5820 5820 5819 5818 5817 5818 5818 5817 5816 5815
5746 5751 5753 5754 5757 5763 5764 5767 5774 5776 5779 5780 5784 5789 5792 5796 5800 5803 5807 5810 5812 5814 5815 5817 5818 5818 5819 5819 5819 5819 5819 5818 5817 5817 5815 5814 5813 5812 5811 5810 5809 5808 5807 5806 5805 5805 5805 5802 5800
5748 5751 5753 5748 5749 5760 5757 5764 5769 5772 5774 5777 5782 5787 5788 5792 5795 5798 5800 5803 5805 5808 5809 5810 5811 5812 5812 5811 5810 5810 5810 5809 5808 5808 5806 5805 5803 5801 5800 5799 5798 5796 5794 5793 5793 5792 5791 5789 5788
5742 5748 5742 5747 5751 5756 5753 5759 5764 5767 5769 5772 5775 5778 5783 5786 5789 5792 5794 5797 5799 5801 5802 5803 5803 5803 5803 5802 5802 5802 5801 5801 5800 5799 5797 5796 5793 5792 5790 5788 5786 5784 5782 5779 5778 5777 5776 5775 5772
5739 5744 5741 5741 5749 5749 5751 5754 5759 5762 5764 5768 5770 5773 5777 5781 5783 5786 5788 5790 5792 5793 5794 5795 5796 5795 5795 5794 5794 5793 5792 5792 5790 5788 5787 5785 5783 5782 5780 5777 5775 5772 5769 5766 5763 5761 5760 5758 5757
5737 5736 5738 5739 5744 5747 5747 5750 5750 5754 5757 5762 5765 5768 5771 5773 5777 5779 5782 5783 5785 5786 5786 5788 5788 5789 5788 5787 5787 5785 5784 5782 5781 5779 5777 5775 5773 5770 5768 5766 5763 5761 5758 5755 5751 5748 5745 5743 5740
5727 5732 5733 5737 5740 5739 5742 5747 5750 5743 5754 5755 5757 5761 5764 5767 5770 5773 5774 5776 5777 5779 5781 5781 5782 5782 5781 5780 5780 5778 5777 5775 5774 5772 5770 5768 5765 5762 5760 5757 5755 5752 5749 5746 5742 5738 5733 5728 5724
5724 5728 5730 5733 5734 5736 5741 5742 5746 5743 5750 5752 5753 5757 5759 5761 5763 5766 5767 5769 5771 5773 5774 5775 5775 5775 5775 5774 5774 5773 5771 5770 5768 5767 5765 5763 5761 5758 5755 5752 5749 5746 5743 5739 5735 5731 5726 5720 5713
5722 5725 5727 5730 5733 5736 5737 5738 5742 5741 5745 5747 5749 5751 5753 5755 5758 5760 5762 5764 5766 5767 5768 5770 5771 5771 5770 5770 5768 5766 5765 5764 5762 5761 5760 5758 5755 5753 5750 5747 5744 5741 5737 5733 5729 5725 5720 5715 5709
5718 5720 5727 5725 5729 5732 5735 5735 5739 5739 5741 5742 5745 5746 5748 5751 5753 5756 5757 5759 5760 5762 5763 5764 5764 5763 5763 5762 5761 5760 5759 5758 5758 5757 5755 5752 5749 5747 5744 5741 5739 5735 5732 5728 5723 5718 5713 5708 5703
5712 5719 5718 5720 5725 5728 5731 5731 5734 5736 5737 5738 5740 5742 5744 5747 5749 5751 5753 5755 5756 5757 5758 5758 5758 5757 5757 5756 5756 5755 5754 5754 5753 5751 5748 5745 5743 5740 5737 5735 5732 5729 5725 5721 5716 5711 5706 5700 5695
5709 5711 5713 5717 5721 5723 5727 5730 5726 5732 5732 5733 5735 5737 5740 5742 5745 5747 5749 5750 5751 5752 5752 5753 5752 5752 5752 5751 5751 5750 5750 5749 5747 5745 5743 5741 5738 5735 5733 5730 5727 5723 5719 5714 5709 5704 5698 5693 5687
5700 5705 5708 5712 5718 5719 5721 5723 5724 5726 5728 5729 5732 5733 5736 5738 5741 5743 5745 5746 5747 5747 5748 5748 5748 5747 5747 5747 5747 5746 5745 5743 5742 5740 5738 5735 5733 5731 5728 5725 5721 5717 5712 5708 5702 5696 5691 5686 5680
Wind_Speed
23 23 24 24 25 26 19 8 17 26 36 30 22 9 9 5 2 5 5 5 5 7 7 5 4 3 1 2 4 4 4 6 9 10 9 9 10 11 11 11 11 13 14 15 16 17 19 20 19
24 24 24 27 26 25 21 5 30 32 29 36 30 18 11 9 4 4 5 5 6 8 9 7 5 5 4 3 2 2 4 4 5 8 8 7 8 9 10 10 12 12 11 13 14 16 16 16 15
24 24 24 25 24 20 13 22 38 41 32 27 23 19 14 13 9 6 6 5 5 9 10 11 8 6 6 5 4 3 4 4 3 4 5 4 5 6 8 10 11 11 10 11 12 14 15 14 13
23 24 25 25 26 14 27 32 36 45 44 34 23 20 15 14 14 11 6 7 5 6 8 10 10 9 6 6 5 4 4 4 5 5 5 5 5 5 6 8 10 11 10 11 11 12 12 12 11
25 26 27 26 17 31 36 38 30 36 42 49 21 19 15 16 14 13 8 7 6 4 3 4 7 9 9 8 5 5 5 5 5 5 6 6 6 5 6 8 10 11 11 11 12 12 11 11 10
37 30 31 15 16 36 41 37 33 40 40 47 29 20 19 18 13 10 10 9 7 9 7 4 2 4 7 8 8 7 5 5 6 7 7 6 5 6 6 7 10 13 14 13 13 13 13 13 12
41 38 27 23 19 37 41 43 50 46 45 26 23 22 23 20 14 14 15 13 9 9 10 10 6 3 2 4 5 6 6 6 6 6 6 7 8 8 8 8 10 13 16 17 16 16 16 15 15
32 41 39 31 20 31 35 42 52 43 40 29 23 28 30 28 27 25 18 18 16 12 12 9 7 6 5 4 3 3 4 4 3 3 4 5 6 7 10 12 11 12 16 19 20 20 19 19 19
27 33 34 27 16 31 26 34 40 39 35 33 28 29 30 30 26 26 26 23 21 16 13 9 7 6 7 9 8 8 7 6 5 4 4 3 3 5 7 9 12 15 15 17 20 22 22 22 22
30 29 24 29 15 29 26 31 33 34 34 32 30 31 31 31 29 27 27 26 25 20 17 16 13 12 12 10 10 11 12 13 12 12 10 7 6 6 5 7 9 10 13 17 19 21 24 26 26
32 32 33 32 29 14 29 35 38 33 31 29 29 30 30 32 30 29 31 30 26 22 21 20 19 16 15 14 12 13 13 14 16 17 18 16 15 12 10 9 9 10 10 13 16 19 22 25 28
35 37 41 34 34 33 29 36 32 26 29 29 31 30 30 29 27 31 32 32 29 26 25 23 22 20 18 18 18 18 17 19 18 20 22 22 22 19 18 15 15 14 13 14 14 16 19 21 24
39 43 44 34 41 35 33 36 37 31 26 28 32 32 32 32 33 33 32 32 31 29 29 28 27 24 24 21 22 22 24 25 27 27 26 26 28 26 24 23 22 21 21 20 20 19 19 20 22
39 48 42 34 27 27 37 37 40 35 32 29 33 33 32 32 34 34 33 33 33 33 33 34 30 29 29 30 30 30 30 30 32 32 32 31 32 30 28 30 29 28 28 26 26 26 25 26 25
43 44 39 35 33 34 33 33 47 41 40 36 35 31 30 32 34 34 33 36 35 36 37 37 35 34 35 35 34 35 37 36 35 35 34 34 35 36 34 32 31 31 35 33 31 32 32 32 33
45 43 42 43 40 38 36 35 37 48 45 41 35 31 29 32 33 35 35 36 36 36 38 40 38 40 39 39 40 40 40 39 37 37 38 38 38 39 39 39 39 39 38 37 39 39 39 40 39
36 41 40 45 42 40 38 35 29 31 51 46 42 38 37 40 39 38 37 39 44 42 39 40 41 42 44 46 46 38 39 40 40 40 41 42 42 43 44 44 43 44 46 46 44 43 45 46 46
33 35 36 44 39 42 40 40 35 26 42 45 45 44 42 40 41 38 41 38 37 39 37 45 43 40 40 39 39 40 40 42 42 42 43 44 45 46 47 48 48 49 50 52 52 52 53 54 54
13 19 22 25 34 37 41 44 35 32 29 35 34 37 39 42 42 39 43 46 44 45 42 39 40 40 40 41 42 43 42 38 39 39 42 43 44 45 47 49 51 52 54 56 57 57 58 59 61
18 16 27 37 38 28 42 35 33 35 33 33 31 30 28 30 34 38 42 42 39 39 41 41 40 41 39 38 40 42 43 44 42 42 42 45 47 48 49 51 52 53 54 55 57 60 62 65 64
20 20 34 34 27 30 37 35 35 36 35 32 31 32 35 36 37 39 39 38 38 39 40 40 42 38 40 40 40 42 41 44 45 42 41 42 44 47 49 51 54 55 56 58 60 61 62 63 64
25 22 32 39 31 31 27 29 30 33 36 36 36 37 36 35 37 37 35 35 35 34 35 32 34 37 40 38 35 34 34 36 38 40 42 42 43 45 47 50 53 56 58 61 63 65 68 68 70
20 26 30 31 23 27 25 31 25 31 35 35 34 35 33 32 33 32 33 32 32 33 34 35 34 32 30 28 29 30 32 33 35 36 38 40 42 44 45 46 48 50 52 54 56 60 63 68 72
32 31 34 26 23 33 31 27 32 39 22 21 26 35 36 34 34 34 34 34 34 32 32 30 27 25 23 24 26 29 30 31 33 35 34 35 36 35 34 33 34 35 35 37 39 43 49 55 61
21 23 24 25 29 31 22 23 20 27 22 23 24 20 24 25 28 29 28 27 28 27 25 21 21 21 23 24 26 26 26 28 29 30 29 26 23 23 25 26 28 30 32 33 33 33 33 32 32
22 22 23 24 21 19 19 23 18 19 16 16 16 19 20 23 25 26 25 24 23 20 19 20 21 22 22 23 24 24 24 24 23 22 21 22 21 20 20 20 21 22 23 25 27 29 31 32 33
25 27 19 22 20 20 19 21 20 20 18 20 18 18 18 19 20 20 20 19 18 18 18 20 21 21 22 23 23 22 22 21 19 18 19 19 19 19 21 21 22 23 25 27 29 31 32 33 33
30 25 30 29 23 23 20 19 20 21 20 21 18 17 17 17 17 18 17 17 17 19 20 21 21 22 23 23 23 23 22 21 21 22 23 23 23 22 23 24 24 26 29 31 32 33 33 33 34
28 29 31 27 24 24 24 18 26 12 19 18 18 18 17 16 17 17 17 18 19 20 20 20 22 23 23 23 22 22 21 20 21 22 22 21 20 22 23 24 27 30 31 31 33 34 34 35 37
33 31 30 26 22 26 23 24 19 16 16 18 18 17 18 18 18 18 19 19 19 18 18 19 20 19 18 18 19 20 20 19 18 17 18 19 19 20 22 26 27 29 30 31 32 33 35 37 39
Wind_Direction
220 220 217 214 209 209 179 146 261 221 231 243 251 263 270 254 80 152 110 70 59 49 43 39 27 0 281 185 162 174 171 140 132 125 120 116 113 112 112 118 123 127 132 132 134 133 135 135 135
224 219 216 214 207 198 193 165 250 237 233 231 239 236 239 252 209 180 123 98 67 55 41 40 32 21 3 317 268 204 196 164 138 135 128 124 120 119 121 128 134 134 137 141 143 143 142 141 139
219 218 213 211 203 178 204 229 235 244 250 215 219 214 229 257 252 202 164 135 102 65 50 44 39 30 23 2 324 285 240 214 186 156 146 139 129 131 134 141 149 149 149 154 155 155 155 155 154
196 207 207 212 184 200 199 185 220 230 246 254 229 216 214 241 246 237 195 176 138 96 72 60 51 46 45 40 5 327 302 269 221 199 186 187 157 153 158 162 170 169 168 171 172 171 172 173 169
191 197 197 191 168 214 214 210 212 233 238 245 200 209 212 227 235 243 208 206 190 165 130 88 75 59 52 51 46 25 345 324 294 272 231 204 196 184 184 181 188 194 188 187 188 188 190 197 195
202 199 199 172 216 222 225 225 223 231 244 239 227 215 210 219 219 233 222 216 225 209 197 198 161 96 66 49 43 50 36 22 354 333 315 291 253 226 214 202 202 206 209 205 205 205 207 212 214
210 196 189 171 242 237 233 229 220 224 235 246 236 221 209 214 230 238 239 235 243 257 231 216 215 221 145 88 55 45 40 37 22 4 349 341 315 287 261 237 221 218 219 218 217 218 222 226 230
247 209 182 187 232 248 237 231 228 226 237 242 227 222 213 225 236 246 237 237 239 258 264 250 239 247 269 288 318 356 9 9 27 18 3 345 331 314 298 284 263 242 231 228 226 226 227 231 235
245 239 199 184 207 236 225 224 229 232 238 242 228 221 223 229 226 234 237 239 240 245 253 235 241 255 270 274 278 289 299 308 316 315 322 318 315 298 299 297 296 287 269 253 243 239 238 237 238
231 245 237 218 234 231 217 216 218 220 222 225 225 220 217 215 219 225 230 236 243 240 242 240 249 263 271 269 273 277 285 291 295 298 294 281 275 279 279 279 277 282 287 283 274 263 256 252 251
232 236 241 212 215 241 223 205 213 219 214 216 218 220 218 215 217 225 229 232 239 244 246 250 256 253 265 271 271 279 279 279 283 286 287 287 281 264 255 263 267 275 272 272 279 278 273 268 264
224 220 223 226 219 216 225 212 212 215 218 215 218 223 223 229 220 225 227 226 233 239 248 254 254 260 260 261 265 271 281 282 279 283 279 275 276 279 281 277 271 266 266 271 268 269 270 272 272
222 225 228 231 232 233 243 228 217 209 214 222 212 223 222 223 223 225 227 231 236 240 245 253 257 259 264 265 265 277 282 285 286 286 286 279 274 269 269 271 275 274 274 266 262 260 264 268 270
222 230 230 236 239 257 241 233 215 205 205 214 215 218 222 226 226 230 234 237 240 246 249 253 256 259 262 264 269 274 278 285 284 283 282 281 282 280 283 268 267 268 267 269 274 275 271 268 266
227 231 236 244 244 244 259 254 214 211 203 207 211 211 220 226 227 233 237 239 241 243 246 251 254 257 261 263 269 277 280 280 280 280 281 281 282 284 285 279 277 275 272 271 273 272 272 273 275
231 232 230 231 232 236 246 257 230 217 212 208 212 217 224 227 231 233 237 241 243 244 247 249 255 257 262 266 270 276 277 278 279 279 281 281 280 280 281 281 280 279 277 273 271 271 274 274 271
237 236 235 235 232 232 238 247 248 239 208 211 213 214 226 230 232 239 241 247 246 249 249 251 252 255 263 265 269 275 276 278 280 281 280 280 280 281 280 279 278 278 279 278 277 275 273 273 273
236 234 238 241 233 229 234 245 245 262 223 217 215 224 226 234 239 236 242 250 250 253 260 253 260 268 272 271 270 275 278 277 278 279 279 279 278 278 278 278 278 277 276 276 276 276 276 276 274
231 237 239 263 241 236 237 242 246 254 253 224 235 236 230 230 242 247 247 250 256 256 259 261 261 264 267 273 275 277 282 280 277 274 275 276 276 276 277 277 276 276 276 277 277 276 275 276 277
204 224 211 225 247 236 238 250 239 242 249 244 242 238 245 236 236 246 249 250 254 258 262 265 266 268 272 278 277 280 282 283 282 281 281 279 279 280 281 280 279 279 278 277 276 275 275 275 275
207 185 228 234 244 245 239 238 233 235 240 254 249 245 243 243 243 247 251 256 257 258 261 266 271 273 274 275 276 276 275 277 279 280 280 278 279 280 279 280 280 280 279 279 278 277 276 274 274
187 198 228 237 244 230 233 248 236 236 242 243 245 247 248 248 250 252 255 259 263 265 266 262 265 269 274 279 280 280 280 280 279 280 281 283 282 280 279 280 280 281 280 280 280 280 278 277 275
181 220 221 233 228 225 234 228 248 239 240 244 247 249 252 255 256 257 260 262 266 268 271 274 275 273 274 276 281 285 288 289 290 290 289 289 289 288 288 287 287 286 287 287 286 285 283 281 280
194 211 229 230 222 220 224 235 227 252 248 256 254 252 252 255 254 257 262 265 265 267 269 269 269 269 277 284 289 293 294 295 295 293 291 291 290 293 296 299 301 302 303 303 302 300 298 295 287
213 209 210 219 225 232 239 246 242 258 250 253 257 257 250 256 251 260 265 266 264 263 263 260 268 276 282 288 287 285 288 289 289 289 288 290 294 298 300 303 305 305 305 307 309 309 312 322 324
217 216 222 226 229 241 246 237 238 248 254 251 250 248 253 249 250 254 256 255 256 252 256 263 264 273 282 283 285 289 291 292 294 297 295 296 297 300 305 311 314 313 316 318 319 321 323 328 330
206 216 206 215 210 217 224 238 243 254 255 256 253 251 250 247 246 248 248 245 247 255 260 265 274 282 286 289 289 290 291 294 298 300 303 307 310 312 313 313 315 319 321 322 323 324 325 325 326
218 216 216 223 224 218 217 255 244 250 253 252 248 245 243 244 245 246 246 249 254 259 265 273 279 284 287 287 288 290 291 289 291 295 300 303 305 312 316 319 319 322 322 323 324 324 324 323 323
223 222 225 231 228 229 233 231 254 252 250 245 240 238 239 242 245 247 250 255 260 265 270 274 281 283 284 285 284 284 288 289 290 294 299 302 303 309 313 314 317 320 321 322 322 321 321 320 320
220 223 234 236 236 241 244 247 263 252 245 241 239 238 239 243 246 250 253 257 260 264 270 276 279 283 285 281 279 280 283 289 294 299 305 310 312 311 311 313 316 318 318 318 321 323 322 319 318